Algona, IA

2:46 AM CST on December 06, 2016 (GMT -0600)
Algona Municipal | | Change Station

Elev 1220 ft 43.08 °N, 94.27 °W | Updated 11 minutes ago

Overcast
Overcast
30 °F
Feels Like 18 °F
N
18
Wind Variable Wind from WNW

Today
High -- | Low -- °F
--% Chance of Precip.
Yesterday
High -- | Low -- °F
Precip. -- in
Pressure 29.81 in
Visibility 10.0 miles
Clouds Mostly Cloudy 1800 ft
Overcast 6000 ft
Windchill 18 °F
Dew Point 27 °F
Humidity 86%
Rainfall 0.00 in
Snow Depth Not available.
7:34 AM 4:41 PM
Waxing Crescent, 39% visible
METAR KAXA 060835Z AUTO 29016KT 10SM BKN018 OVC060 M01/M03 A2981 RMK AO2
Pressure 29.81 in
Visibility 10.0 miles
Clouds Mostly Cloudy 1800 ft
Overcast 6000 ft
Windchill 18 °F
Dew Point 27 °F
Humidity 86%
Rainfall 0.00 in
Snow Depth Not available.
7:34 AM 4:41 PM
Waxing Crescent, 39% visible
METAR KAXA 060835Z AUTO 29016KT 10SM BKN018 OVC060 M01/M03 A2981 RMK AO2

10-Day Weather Forecast

Almanac

Astronomy

Dec. 06, 2016 Rise Set
Actual Time
Civil Twilight
Nautical Twilight
Astronomical Twilight
Moon
Length of Visible Light
Length of Day
Tomorrow will be .
, % of the Moon is Illuminated

Today's Extremes

State Highs State Lows

Community

WunderPhotos

Upload Photos

1,955,935 photos uploaded!

WunderBlog® & News

Nearby

Air Quality

  Air Quality AQ Index Pollutant
Not available.

Snow Depth

Station Depth Elevation

Earthquake Activity

City Distance Mag. Time & Date
Minimum magnitude displayed is 2.5.

Coastal Water Temperatures

Place Temperature

Stations

Nearby Weather Stations

Station Location Temp. Windchill Dew Point Humidity Wind Precip. Elev Updated Type
                   

Watches & Warnings

There are currently no watches in effect.